Location: Brabourne
(51.1333°N, 1.0000°E)
Time: 22:00:53
(UTC+00:00)

NOSS 3-1 (A) - Pass Details

Date: 24 October 2021
Orbit: 721 x 1491 km, 63.4° (Epoch: 22 November)

Event Time Altitude Azimuth Distance (km) Brightness Sun altitude
Rises 19:38:14 0° 233° (SW) 3,252 6.7 -27.7°
Reaches altitude 10° 19:40:30 10° 236° (SW) 2,391 6.0 -28.0°
Maximum altitude 19:45:58 68° 320° (NW) 972 3.5 -28.9°
Enters shadow 19:47:26 51° 20° (NNE) 1,168 3.8 -29.1°
